Location: Kershaw
(34.5481°N, 80.5823°W)
Time: 20:48:56
(UTC+00:00)

Vanguard 2 Rocket - Pass Details

Date: 05 October 2022
Orbit: 555 x 3321 km, 32.9° (Epoch: 28 November)

Event Time Altitude Azimuth Distance (km) Brightness Sun altitude
Rises 03:56:34 0° 250° (WSW) 7,041 11.5 -55.6°
Reaches altitude 10° 04:01:44 10° 249° (WSW) 5,759 11.0 -56.1°
Enters shadow 04:06:36 22° 247° (WSW) 4,497 10.3 -56.7°
